Location: Cerezo de Arriba
(41.2389°N, 3.5585°W)
Time: 04:21:34
(UTC+00:00)

Cosmos 381 Rocket - Pass Details

Date: 19 May 2025
Orbit: 954 x 995 km, 74.0° (Epoch: 23 June)

Event Time Altitude Azimuth Distance (km) Brightness Sun altitude
Exits shadow 23:17:21 67° 213° (SSW) 1,049 4.4 -27.5°
Maximum altitude 23:18:15 84° 289° (WNW) 986 4.4 -27.6°
Drops below altitude 10° 23:24:38 10° 18° (NNE) 2,746 7.6 -27.8°
Sets 23:27:12 0° 20° (NNE) 3,704 8.4 -27.9°
